Yuma MCAS, AZ

9:36 AM MST on April 23, 2017 (GMT -0700)
Yuma Marine Corps Air Station

Weather History for KNYL - November, 2012

Change the Weather History Date:

Saturday, November 17, 2012

  Actual Average Record
Temperature  
Mean Temperature 71 °F 65 °F  
Max Temperature 82 °F 77 °F 88 °F (1949)
Min Temperature 59 °F 53 °F 30 °F (1958)
Degree Days  
Heating Degree Days 0 2  
Month to date heating degree days 22 17  
Since 1 July heating degree days 22 19  
Cooling Degree Days 6 2  
Month to date cooling degree days 89 73  
Year to date cooling degree days 4879 4635  
Growing Degree Days 20 (Base 50)    
Moisture  
Dew Point 42 °F    
Average Humidity 37    
Maximum Humidity 48    
Minimum Humidity 26    
Precipitation  
Precipitation 0.00 in 0.01 in 0.23 in (1982)
Month to date precipitation T 0.10  
Year to date precipitation 2.37 2.93  
Sea Level Pressure  
Sea Level Pressure 30.01 in    
Wind  
Wind Speed 3 mph (NW)    
Max Wind Speed 13 mph    
Max Gust Speed 16 mph    
Visibility 10 miles    
Events      
T = Trace of Precipitation, MM = Missing Value Source: NWS Daily Summary

Daily Weather History Graph

Daily Weather History Graph

Search for Another Location

Airport or City:

Trip Planner

Search our weather history database for the weather conditions in past years. The results will help you decide how hot, cold, wet, or windy it might be!

Date:

Astronomy

Nov. 17, 2012 Rise Set
Actual Time 7:10 AM MST 5:36 PM MST
Civil Twilight 6:44 AM MST 6:02 PM MST
Nautical Twilight 6:14 AM MST 6:32 PM MST
Astronomical Twilight 5:45 AM MST 7:01 PM MST
Moon 10:58 AM MST (11/17) 9:49 PM MST (11/17)
Length of Visible Light 11h 17m
Length of Day
10h 25m
Waxing Crescent, 21% of the Moon is Illuminated
Nov 17
Waxing Crescent
Nov 20
First Quarter
Nov 28
Full
Dec 6
Last Quarter
Dec 13
New

Hourly Weather History & Observations

Time (MST) Temp. Dew Point Humidity Pressure Visibility Wind Dir Wind Speed Gust Speed Precip Events Conditions
12:55 AM 66.0 °F 33.1 °F 29% 30.03 in 10.0 mi Calm Calm - N/A   Mostly Cloudy
1:55 AM 62.1 °F 39.0 °F 43% 30.01 in 10.0 mi Calm Calm - N/A   Mostly Cloudy
2:55 AM 63.0 °F 36.0 °F 37% 30.00 in 10.0 mi East 3.5 mph - N/A   Mostly Cloudy
3:55 AM 62.1 °F 37.0 °F 39% 30.00 in 10.0 mi ENE 3.5 mph - N/A   Mostly Cloudy
4:55 AM 61.0 °F 36.0 °F 39% 30.01 in 10.0 mi Calm Calm - N/A   Scattered Clouds
5:55 AM 59.0 °F 35.1 °F 41% 30.01 in 10.0 mi Calm Calm - N/A   Partly Cloudy
6:55 AM 60.1 °F 34.0 °F 38% 30.02 in 10.0 mi NNE 4.6 mph - N/A   Mostly Cloudy
7:55 AM 59.0 °F 35.1 °F 41% 30.04 in 10.0 mi Calm Calm - N/A   Mostly Cloudy
8:55 AM 63.0 °F 33.1 °F 33% 30.04 in 10.0 mi NE 3.5 mph - N/A   Mostly Cloudy
9:55 AM 69.1 °F 37.0 °F 31% 30.06 in 10.0 mi Calm Calm - N/A   Mostly Cloudy
10:55 AM 75.0 °F 46.0 °F 36% 30.06 in 10.0 mi Calm Calm - N/A   Mostly Cloudy
11:55 AM 78.1 °F 48.0 °F 35% 30.04 in 10.0 mi NNW 9.2 mph - N/A   Scattered Clouds
12:55 PM 79.0 °F 46.9 °F 32% 30.01 in 10.0 mi NNW 5.8 mph - N/A   Scattered Clouds
1:55 PM 80.1 °F 46.9 °F 31% 30.00 in 10.0 mi WNW 11.5 mph - N/A   Scattered Clouds
2:55 PM 81.0 °F 46.0 °F 29% 29.98 in 10.0 mi WNW 8.1 mph - N/A   Scattered Clouds
3:55 PM 81.0 °F 46.9 °F 30% 29.98 in 10.0 mi West 8.1 mph - N/A   Scattered Clouds
4:55 PM 79.0 °F 46.9 °F 32% 29.97 in 10.0 mi West 5.8 mph - N/A   Scattered Clouds
5:55 PM 75.0 °F 46.9 °F 37% 29.98 in 10.0 mi Calm Calm - N/A   Scattered Clouds
6:55 PM 72.0 °F 46.0 °F 40% 29.98 in 10.0 mi Calm Calm - N/A   Scattered Clouds
7:55 PM 69.1 °F 46.0 °F 44% 29.99 in 10.0 mi WSW 4.6 mph - N/A   Scattered Clouds
8:55 PM 68.0 °F 46.0 °F 45% 30.01 in 10.0 mi West 5.8 mph - N/A   Scattered Clouds
9:55 PM 66.0 °F 46.0 °F 48% 30.02 in 10.0 mi Calm Calm - N/A   Partly Cloudy
10:55 PM 66.9 °F 46.0 °F 47% 30.02 in 10.0 mi North 4.6 mph - N/A   Partly Cloudy
11:00 PM - - N/A% - - North - - N/A   Unknown
11:55 PM 64.9 °F 46.0 °F 50% 30.02 in 10.0 mi Calm Calm - N/A   Partly Cloudy